Satellite: NO-44
Catalog number: 26931
Epoch time:      11334.88705937
Element set:    0910
Inclination:      067.0525 deg
RA of node:       273.9703 deg
Eccentricity:    0.0004942
Arg of perigee:   272.3538 deg
Mean anomaly:     087.6990 deg
Mean motion:   14.29727121 rev/day
Decay rate:       2.10e-06 rev/day^2
Epoch rev:           53075
Checksum:              311

Satellite: SO-50
Catalog number: 27607
Epoch time:      11334.12460380
Element set:    0628
Inclination:      064.5565 deg
RA of node:       183.3491 deg
Eccentricity:    0.0083504
Arg of perigee:   287.2844 deg
Mean anomaly:     071.9136 deg
Mean motion:   14.72046142 rev/day
Decay rate:      1.015e-05 rev/day^2
Epoch rev:           48051
Checksum:              286

Satellite: CO-55
Catalog number: 27844
Epoch time:      11335.56560204
Element set:     255
Inclination:      098.7049 deg
RA of node:       341.8408 deg
Eccentricity:    0.0010522
Arg of perigee:   075.1955 deg
Mean anomaly:     285.0386 deg
Mean motion:   14.20911117 rev/day
Decay rate:       4.40e-06 rev/day^2
Epoch rev:           43668
Checksum:              299

Satellite: CO-57
Catalog number: 27848
Epoch time:      11334.69034150
Element set:     201
Inclination:      098.7134 deg
RA of node:       340.2283 deg
Eccentricity:    0.0010730
Arg of perigee:   083.7341 deg
Mean anomaly:     276.5037 deg
Mean motion:   14.20677371 rev/day
Decay rate:       4.00e-06 rev/day^2
Epoch rev:           43650
Checksum:              275

Satellite: AO-51
Catalog number: 28375
Epoch time:      11335.82520438
Element set:     133
Inclination:      098.1192 deg
RA of node:       305.6538 deg
Eccentricity:    0.0083314
Arg of perigee:   282.6930 deg
Mean anomaly:     076.4938 deg
Mean motion:   14.40858914 rev/day
Decay rate:       7.11e-06 rev/day^2
Epoch rev:           39020
Checksum:              306

Satellite: CP3
Catalog number: 31129
Epoch time:      11334.78009747
Element set:    0033
Inclination:      097.8885 deg
RA of node:       349.2932 deg
Eccentricity:    0.0102383
Arg of perigee:   023.8012 deg
Mean anomaly:     336.7886 deg
Mean motion:   14.52735414 rev/day
Decay rate:      1.290e-05 rev/day^2
Epoch rev:           24502
Checksum:              299

Satellite: CO-65
Catalog number: 32785
Epoch time:      11335.70683350
Element set:     164
Inclination:      097.8306 deg
RA of node:       036.2331 deg
Eccentricity:    0.0014666
Arg of perigee:   354.8602 deg
Mean anomaly:     005.2447 deg
Mean motion:   14.82453554 rev/day
Decay rate:      2.359e-05 rev/day^2
Epoch rev:           19435
Checksum:              307

Satellite: PRISM
Catalog number: 33493
Epoch time:      11335.73634672
Element set:     198
Inclination:      098.1455 deg
RA of node:       107.0895 deg
Eccentricity:    0.0019126
Arg of perigee:   218.0070 deg
Mean anomaly:     141.9806 deg
Mean motion:   14.82673278 rev/day
Decay rate:      5.317e-05 rev/day^2
Epoch rev:           15433
Checksum:              307

Satellite: SOHLA-1
Catalog number: 33496
Epoch time:      11334.92215213
Element set:    0592
Inclination:      098.0933 deg
RA of node:       083.1997 deg
Eccentricity:    0.0006234
Arg of perigee:   321.8117 deg
Mean anomaly:     038.2646 deg
Mean motion:   14.69781270 rev/day
Decay rate:       7.33e-06 rev/day^2
Epoch rev:           15297
Checksum:              307

Satellite: TISAT-1
Catalog number: 36799
Epoch time:      11335.78653080
Element set:     468
Inclination:      098.0857 deg
RA of node:       045.5814 deg
Eccentricity:    0.0016220
Arg of perigee:   095.3280 deg
Mean anomaly:     264.9809 deg
Mean motion:   14.81193719 rev/day
Decay rate:      3.295e-05 rev/day^2
Epoch rev:            7511
Checksum:              329

Satellite: STUDSAT
Catalog number: 36801
Epoch time:      11335.88550429
Element set:     293
Inclination:      098.0908 deg
RA of node:       045.7254 deg
Eccentricity:    0.0013887
Arg of perigee:   083.7034 deg
Mean anomaly:     276.5750 deg
Mean motion:   14.82276198 rev/day
Decay rate:      9.185e-05 rev/day^2
Epoch rev:            7512
Checksum:              325

Satellite: OOREOS
Catalog number: 37224
Epoch time:      11283.12196780
Element set:    0302
Inclination:      071.9656 deg
RA of node:       145.3580 deg
Eccentricity:    0.0018647
Arg of perigee:   057.9354 deg
Mean anomaly:     302.3616 deg
Mean motion:   14.77183931 rev/day
Decay rate:       9.55e-06 rev/day^2
Epoch rev:           04784
Checksum:              307

Satellite: FO-69
Catalog number: 37227
Epoch time:      11335.45306295
Element set:    0039
Inclination:      071.9715 deg
RA of node:       030.4150 deg
Eccentricity:    0.0018019
Arg of perigee:   325.1311 deg
Mean anomaly:     034.8724 deg
Mean motion:   14.76812202 rev/day
Decay rate:      1.032e-05 rev/day^2
Epoch rev:           00675
Checksum:              267

Satellite: NANOSALD
Catalog number: 37361
Epoch time:      11242.25215765
Element set:    0351
Inclination:      071.9735 deg
RA of node:       221.4469 deg
Eccentricity:    0.0025730
Arg of perigee:   245.3422 deg
Mean anomaly:     114.7284 deg
Mean motion:   15.22200108 rev/day
Decay rate:    1.80112e-03 rev/day^2
Epoch rev:           03331
Checksum:              248

